Weather History for North Wilkesboro, NC

Change the Weather History Date:

Friday, November 4, 2011

  Actual Average Record
Temperature  
Mean Temperature 54 °F -  
Max Temperature 60 °F 67 °F 84 °F (1974)
Min Temperature 48 °F 38 °F 21 °F (1966)
Degree Days  
Heating Degree Days 11    
Growing Degree Days 4 (Base 50)    
Moisture  
Dew Point 48 °F    
Average Humidity 83    
Maximum Humidity 100    
Minimum Humidity 48    
Precipitation  
Precipitation 0.17 in - - ()
Sea Level Pressure  
Sea Level Pressure 29.87 in    
Wind  
Wind Speed 5 mph (NNE)    
Max Wind Speed 20 mph    
Max Gust Speed 25 mph    
Visibility 9 miles    
Events      
Averages and records for this station are not official NWS values.
T = Trace of Precipitation, MM = Missing Value Source: NWS Daily Summary

Daily Weather History Graph

Daily Weather History Graph

Search for Another Location

Airport:

Trip Planner

Search our weather history database for the weather conditions in past years. The results will help you decide how hot, cold, wet, or windy it might be!

Date:

Astronomy

Nov. 04, 2011 Rise Set
Actual Time 7:49 AM EDT 6:25 PM EDT
Civil Twilight 7:23 AM EDT 6:52 PM EDT
Nautical Twilight 6:52 AM EDT 7:22 PM EDT
Astronomical Twilight 6:22 AM EDT 7:52 PM EDT
Moon 3:07 PM EDT (11/4) 2:10 AM EDT (11/4)
Length of Visible Light 11h 29m
Length of Day
10h 35m
Waxing Gibbous, 69% of the Moon is Illuminated
Nov 4
Waxing Gibbous
Nov 10
Full
Nov 18
Last Quarter
Nov 25
New
Dec 2
First Quarter

Hourly Weather History & Observations

Time (EDT) Temp. Dew Point Humidity Pressure Visibility Wind Dir Wind Speed Gust Speed Precip Events Conditions
12:35 AM 51.8 °F 51.8 °F 100% 29.90 in 4.0 mi NW 3.5 mph - 0.12 in   Overcast
12:55 AM 51.8 °F 51.8 °F 100% 29.88 in 7.0 mi ENE 5.8 mph - 0.11 in   Overcast
1:15 AM 51.8 °F 51.8 °F 100% 29.85 in 7.0 mi ENE 10.4 mph - 0.05 in   Overcast
1:35 AM 51.8 °F 51.8 °F 100% 29.85 in 5.0 mi ESE 5.8 mph - 0.05 in   Overcast
1:55 AM 51.8 °F 51.8 °F 100% 29.82 in 7.0 mi East 10.4 mph 20.7 mph 0.02 in   Mostly Cloudy
2:15 AM 51.8 °F 51.8 °F 100% 29.83 in 10.0 mi NE 6.9 mph - N/A   Mostly Cloudy
2:55 AM 51.8 °F 51.8 °F 100% 29.82 in 10.0 mi NNW 4.6 mph - N/A   Overcast
3:15 AM 51.8 °F 51.8 °F 100% 29.81 in 10.0 mi NNE 9.2 mph - N/A   Overcast
3:35 AM 51.8 °F 51.8 °F 100% 29.80 in 10.0 mi NE 5.8 mph - N/A   Overcast
3:55 AM 51.8 °F 51.8 °F 100% 29.80 in 10.0 mi Calm Calm - N/A   Overcast
4:15 AM 51.8 °F 51.8 °F 100% 29.80 in 10.0 mi Calm Calm - N/A   Overcast
4:35 AM 51.8 °F 51.8 °F 100% 29.80 in 10.0 mi Calm Calm - N/A   Overcast
4:55 AM 51.8 °F 51.8 °F 100% 29.80 in 10.0 mi Calm Calm - N/A   Overcast
5:15 AM 51.8 °F 51.8 °F 100% 29.81 in 10.0 mi Calm Calm - N/A   Overcast
5:35 AM 51.8 °F 51.8 °F 100% 29.81 in 10.0 mi Calm Calm - N/A   Overcast
5:55 AM 51.8 °F 51.8 °F 100% 29.81 in 5.0 mi Calm Calm - N/A   Overcast
6:15 AM 50.0 °F 50.0 °F 100% 29.81 in 10.0 mi Calm Calm - N/A   Overcast
6:35 AM 48.2 °F 48.2 °F 100% 29.81 in 4.0 mi Calm Calm - N/A   Scattered Clouds
7:15 AM 48.2 °F 48.2 °F 100% 29.82 in 5.0 mi Calm Calm - N/A   Overcast
7:35 AM 48.2 °F 48.2 °F 100% 29.82 in 0.5 mi Calm Calm - N/A   Overcast
7:55 AM 48.2 °F 48.2 °F 100% 29.83 in 5.0 mi Calm Calm - N/A   Overcast
8:15 AM 48.2 °F 48.2 °F 100% 29.84 in 7.0 mi WNW 4.6 mph - N/A   Overcast
8:35 AM 50.0 °F 50.0 °F 100% 29.85 in 7.0 mi WNW 3.5 mph - N/A   Overcast
8:55 AM 50.0 °F 50.0 °F 100% 29.86 in 10.0 mi Calm Calm - N/A   Overcast
9:15 AM 50.0 °F 50.0 °F 100% 29.87 in 7.0 mi Calm Calm - N/A   Overcast
9:35 AM 51.8 °F 51.8 °F 100% 29.87 in 7.0 mi Calm Calm - 0.01 in   Overcast
9:55 AM 51.8 °F 51.8 °F 100% 29.88 in 10.0 mi Calm Calm - N/A   Scattered Clouds
10:15 AM 55.4 °F 50.0 °F 82% 29.89 in 10.0 mi North 8.1 mph - N/A   Scattered Clouds
10:35 AM 55.4 °F 48.2 °F 77% 29.90 in 10.0 mi North 11.5 mph - N/A   Mostly Cloudy
10:55 AM 53.6 °F 46.4 °F 77% 29.91 in 10.0 mi North 10.4 mph 17.3 mph N/A   Overcast
11:15 AM 53.6 °F 46.4 °F 77% 29.92 in 10.0 mi North 9.2 mph - N/A   Mostly Cloudy
11:35 AM 53.6 °F 46.4 °F 77% 29.92 in 10.0 mi North 5.8 mph - N/A   Mostly Cloudy
11:55 AM 55.4 °F 44.6 °F 67% 29.91 in 10.0 mi NNW 9.2 mph - N/A   Scattered Clouds
12:15 PM 57.2 °F 44.6 °F 63% 29.91 in 10.0 mi North 8.1 mph - N/A   Clear
12:35 PM 59.0 °F 44.6 °F 59% 29.91 in 10.0 mi North 15.0 mph 24.2 mph N/A   Clear
12:55 PM 60.8 °F 44.6 °F 55% 29.91 in 10.0 mi North 19.6 mph 25.3 mph N/A   Clear
1:15 PM 60.8 °F 44.6 °F 55% 29.92 in 10.0 mi NNE 17.3 mph 20.7 mph N/A   Scattered Clouds
1:35 PM 59.0 °F 42.8 °F 55% 29.92 in 10.0 mi NNE 10.4 mph 24.2 mph N/A   Overcast
1:55 PM 57.2 °F 42.8 °F 59% 29.93 in 10.0 mi NNE 12.7 mph 17.3 mph N/A   Overcast
2:15 PM 57.2 °F 42.8 °F 59% 29.94 in 10.0 mi NNE 10.4 mph - N/A   Overcast
2:35 PM 57.2 °F 42.8 °F 59% 29.94 in 10.0 mi NNE 9.2 mph - N/A   Overcast
2:55 PM 57.2 °F 42.8 °F 59% 29.94 in 10.0 mi NE 5.8 mph - N/A   Overcast
3:35 PM 59.0 °F 42.8 °F 55% 29.95 in 10.0 mi NNE 6.9 mph - N/A   Overcast
3:55 PM 60.8 °F 42.8 °F 52% 29.95 in 10.0 mi NNE 6.9 mph - N/A   Mostly Cloudy
4:15 PM 60.8 °F 42.8 °F 52% 29.96 in 10.0 mi NNE 6.9 mph - N/A   Mostly Cloudy
4:35 PM 60.8 °F 42.8 °F 52% 29.97 in 10.0 mi NNE 5.8 mph - N/A   Mostly Cloudy
4:55 PM 60.8 °F 41.0 °F 48% 29.97 in 10.0 mi North 13.8 mph 17.3 mph N/A   Scattered Clouds
5:15 PM 60.8 °F 41.0 °F 48% 29.98 in 10.0 mi NNE 9.2 mph - N/A   Clear
5:35 PM 60.8 °F 39.2 °F 45% 29.99 in 10.0 mi NNE 9.2 mph - N/A   Clear
5:55 PM 60.8 °F 41.0 °F 48% 29.99 in 10.0 mi NNE 5.8 mph - N/A   Clear
6:15 PM 59.0 °F 39.2 °F 48% 30.00 in 10.0 mi NNE 6.9 mph - N/A   Clear
6:55 PM 53.6 °F 41.0 °F 62% 30.03 in 10.0 mi North 4.6 mph - N/A   Clear
7:15 PM 51.8 °F 41.0 °F 67% 30.04 in 10.0 mi NNE 4.6 mph - N/A   Clear
7:35 PM 51.8 °F 41.0 °F 67% 30.05 in 10.0 mi NNE 4.6 mph - N/A   Clear
7:55 PM 53.6 °F 39.2 °F 58% 30.06 in 10.0 mi North 3.5 mph - N/A   Clear
8:35 PM 53.6 °F 39.2 °F 58% 30.08 in 10.0 mi North 4.6 mph - N/A   Clear
8:55 PM 53.6 °F 39.2 °F 58% 30.09 in 10.0 mi Calm Calm - N/A   Clear
9:15 PM 53.6 °F 39.2 °F 58% 30.10 in 10.0 mi North 8.1 mph - N/A   Clear
9:35 PM 51.8 °F 39.2 °F 62% 30.11 in 10.0 mi North 6.9 mph - N/A   Clear
9:55 PM 53.6 °F 39.2 °F 58% 30.12 in 10.0 mi North 4.6 mph - N/A   Clear
10:15 PM 51.8 °F 39.2 °F 62% 30.13 in 10.0 mi North 9.2 mph - N/A   Clear
10:35 PM 51.8 °F 37.4 °F 58% 30.14 in 10.0 mi North 5.8 mph - N/A   Clear
10:55 PM 51.8 °F 37.4 °F 58% 30.15 in 10.0 mi NNE 4.6 mph - N/A   Clear
11:15 PM 51.8 °F 37.4 °F 58% 30.15 in 10.0 mi North 3.5 mph - N/A   Clear
11:35 PM 48.2 °F 37.4 °F 66% 30.15 in 10.0 mi Calm Calm - N/A   Clear
11:55 PM 48.2 °F 37.4 °F 66% 30.16 in 10.0 mi NNE 4.6 mph - N/A   Clear